Find Starlink 11388

NORAD ID: 62092 Int'l Des: 2024-220 Owner: SPXS Country: US Constellation: starlink operational
LEOCIRCULAR

Live Position

Loading 3D Globe...

About Starlink 11388

Description loading...

Upcoming Passes

Passes for default location (London). Set your location on the main map for personalized predictions.

Altitude History

Loading altitude history...

Two-Line Element Set

1 62092U 24220E 26127.76706993 .00155685 00000-0 11888-2 0 9992
2 62092 43.0012 47.0533 0002471 274.9928 85.0657 15.70945857 84248
Epoch: May 7, 2026 • Age: 4 hours

Current Status

Altitude 360.5 km
Velocity 7.69 km/s
Sub-Earth Point -23.44°S, 170.06°E
Launch Date Nov 25, 2024
Age 1.4 years
Type internet

Technical Details

Classification Payload
Mass 960.00 kg
Dry Mass 910.00 kg
Total Mass 960.00 kg
Length 0.30 m
Diameter 4.10 m
Span 29.00 m
Shape Box + pan
Manufacturer SPXS
Bus Type Starlink V2MD
Phase Status In Orbit
Owner/State SPXS/US

Most Searched